Location: Tamazert
(32.6352°N, 5.2072°W)
Time: 03:39:11
(UTC+00:00)

Vanguard 2 Rocket - Pass Details

Date: 11 October 2022
Orbit: 555 x 3321 km, 32.9° (Epoch: 05 December)

Event Time Altitude Azimuth Distance (km) Brightness Sun altitude
Rises 23:25:53 0° 275° (W) 7,135 11.6 -62.9°
Reaches altitude 10° 23:31:04 10° 275° (W) 5,889 11.1 -63.3°
Enters shadow 23:36:24 23° 276° (W) 4,546 10.4 -63.7°
Maximum altitude 23:48:13 88° 189° (S) 2,094 - -64.3°
Drops below altitude 10° 23:57:49 10° 100° (E) 3,520 - -64.6°
Sets 00:00:09 0° 100° (E) 4,220 - -64.6°
